,,,PA_Meas_PMT16A,,PR_Meas_QMR101_102,,RH_Meas_QMH101,,SR_Meas_QMS101,,TA_Meas_QMH101,,GenWind,,GenWind,
date,time,status,PA,status,PR,status,RH,status,SR,status,TA,status,DirAvg,status,SpdAvg,
2011-03-24, 00:00:05,VALID,1002.2,VALID,0,VALID,98.1303,VALID,0,VALID,25.6876,VALID,329,VALID,0.458984,
2011-03-24, 00:01:05,VALID,1002.17,VALID,0,VALID,97.6649,VALID,0.100563,VALID,25.7071,VALID,331,VALID,0.91875,
2011-03-24, 00:02:05,VALID,1002.18,VALID,0,VALID,97.7336,VALID,0,VALID,25.7265,VALID,329,VALID,0.422266,
2011-03-24, 00:03:05,VALID,1002.18,VALID,0,VALID,97.5963,VALID,0.100563,VALID,25.7265,VALID,328,VALID,1.01523,
2011-03-24, 00:04:05,VALID,1002.17,VALID,0,VALID,97.6268,VALID,0,VALID,25.7655,VALID,356,VALID,0.837109,
2011-03-24, 00:05:05,VALID,1002.16,VALID,0,VALID,97.375,VALID,0,VALID,25.7655,VALID,353,VALID,0.932031,
2011-03-24, 00:06:05,VALID,1002.14,VALID,0,VALID,97.3293,VALID,0,VALID,25.746,VALID,344,VALID,0.730469,
2011-03-24, 00:07:05,VALID,1002.15,VALID,0,VALID,97.1767,VALID,0,VALID,25.7246,VALID,360,VALID,0.900781,
2011-03-24, 00:08:05,VALID,1002.14,VALID,0,VALID,96.7723,VALID,0,VALID,25.7655,VALID,344,VALID,0.920703,
2011-03-24, 00:09:05,VALID,1002.09,VALID,0,VALID,97.5429,VALID,0.100563,VALID,25.8044,VALID,354,VALID,0.597266,
2011-03-24, 00:10:05,VALID,1002.1,VALID,0,VALID,98.2371,VALID,0.100563,VALID,25.785,VALID,353,VALID,0.5125,
2011-03-24, 00:11:05,VALID,1002.05,VALID,0,VALID,98.054,VALID,0.100563,VALID,25.7674,VALID,353,VALID,0.746484,
2011-03-24, 00:12:05,VALID,1002.08,VALID,0,VALID,98.5956,VALID,0,VALID,25.746,VALID,355,VALID,0.472656,
2011-03-24, 00:13:05,VALID,1002.05,VALID,0,VALID,98.9161,VALID,0,VALID,25.7071,VALID,354,VALID,0.364844,
2011-03-24, 00:14:05,VALID,1002.03,VALID,0,VALID,99.5798,VALID,0.100563,VALID,25.6856,VALID,354,VALID,0.257031,
2011-03-24, 00:15:05,VALID,1002.03,VALID,0,VALID,99.7171,VALID,0.100563,VALID,25.6681,VALID,9,VALID,0.247266,
2011-03-24, 00:16:05,VALID,1001.99,VALID,0,VALID,98.9313,VALID,0,VALID,25.6272,VALID,9,VALID,0.476563,
2011-03-24, 00:17:05,VALID,1002.01,VALID,0,VALID,99.5798,VALID,0.100563,VALID,25.6486,VALID,7,VALID,0.43125,
2011-03-24, 00:18:05,VALID,1001.99,VALID,0,VALID,100.35,VALID,0.100563,VALID,25.6097,VALID,7,VALID,0.3375,
2011-03-24, 00:19:05,VALID,1001.96,VALID,0,VALID,100.305,VALID,0.100563,VALID,25.5902,VALID,6,VALID,0.314453,
2011-03-24, 00:20:05,VALID,1001.95,VALID,0,VALID,99.4577,VALID,0.100563,VALID,25.5902,VALID,348,VALID,0.530859,
2011-03-24, 00:21:05,VALID,1001.93,VALID,0,VALID,100.411,VALID,0.100563,VALID,25.5688,VALID,348,VALID,0.466797,
2011-03-24, 00:22:05,VALID,1001.9,VALID,0,VALID,100.449,VALID,0.100563,VALID,25.5493,VALID,350,VALID,0.519922,
2011-03-24, 00:23:05,VALID,1001.89,VALID,0,VALID,100.694,VALID,0,VALID,25.5318,VALID,356,VALID,0.668359,
2011-03-24, 00:24:05,VALID,1001.88,VALID,0,VALID,101.487,VALID,0.100563,VALID,25.5123,VALID,360,VALID,0.500781,
2011-03-24, 00:25:05,VALID,1001.86,VALID,0,VALID,102.364,VALID,0.100563,VALID,25.4909,VALID,360,VALID,0.514844,
2011-03-24, 00:26:05,VALID,1001.85,VALID,0,VALID,103.814,VALID,0.100563,VALID,25.4734,VALID,360,VALID,0.222266,
2011-03-24, 00:27:05,VALID,1001.84,VALID,0,VALID,104,VALID,0.100563,VALID,25.452,VALID,360,VALID,0.345703,
2011-03-24, 00:28:05,VALID,1001.85,VALID,0,VALID,104,VALID,0.100563,VALID,25.4325,VALID,360,VALID,0.426562,
2011-03-24, 00:29:05,VALID,1001.84,VALID,0,VALID,104,VALID,0.100563,VALID,25.413,VALID,360,VALID,0.230859,
2011-03-24, 00:30:05,VALID,1001.83,VALID,0,VALID,104,VALID,0,VALID,25.4149,VALID,360,VALID,0.135937,
2011-03-24, 00:31:05,VALID,1001.84,VALID,0,VALID,104,VALID,0.100563,VALID,25.413,VALID,360,VALID,0.00195313,
2011-03-24, 00:32:05,VALID,1001.8,VALID,0,VALID,104,VALID,0,VALID,25.4344,VALID,360,VALID,0.163281,
2011-03-24, 00:33:05,VALID,1001.78,VALID,0,VALID,104,VALID,0.100563,VALID,25.4344,VALID,360,VALID,0.0261719,
2011-03-24, 00:34:05,VALID,1001.78,VALID,0,VALID,104,VALID,0.100563,VALID,25.4344,VALID,360,VALID,0.356641,
2011-03-24, 00:35:05,VALID,1001.75,VALID,0,VALID,104,VALID,0.100563,VALID,25.4325,VALID,360,VALID,0.221094,
2011-03-24, 00:36:05,VALID,1001.72,VALID,0,VALID,104,VALID,0.100563,VALID,25.4539,VALID,360,VALID,0.191406,
2011-03-24, 00:37:05,VALID,1001.7,VALID,0,VALID,104,VALID,0,VALID,25.4325,VALID,360,VALID,0.152734,
2011-03-24, 00:38:05,VALID,1001.68,VALID,0,VALID,104,VALID,0,VALID,25.4539,VALID,9,VALID,0.349219,
2011-03-24, 00:39:05,VALID,1001.68,VALID,0,VALID,104,VALID,0.100563,VALID,25.452,VALID,8,VALID,0.290234,
2011-03-24, 00:40:05,VALID,1001.67,VALID,0,VALID,103.417,VALID,0.100563,VALID,25.4539,VALID,359,VALID,0.335156,
2011-03-24, 00:41:05,VALID,1001.7,VALID,0,VALID,103.203,VALID,0.100563,VALID,25.4325,VALID,352,VALID,0.488281,
2011-03-24, 00:42:05,VALID,1001.67,VALID,0,VALID,103.646,VALID,0,VALID,25.4734,VALID,339,VALID,0.475,
2011-03-24, 00:43:05,VALID,1001.65,VALID,0,VALID,104,VALID,0,VALID,25.4539,VALID,339,VALID,0.304297,
2011-03-24, 00:44:05,VALID,1001.66,VALID,0,VALID,104,VALID,0,VALID,25.4558,VALID,339,VALID,0.370313,
2011-03-24, 00:45:05,VALID,1001.66,VALID,0,VALID,104,VALID,0,VALID,25.4363,VALID,339,VALID,0.332422,
2011-03-24, 00:46:05,VALID,1001.66,VALID,0,VALID,104,VALID,0,VALID,25.3955,VALID,339,VALID,0.421484,
2011-03-24, 00:47:05,VALID,1001.65,VALID,0,INVALID,109.612,VALID,0,VALID,25.376,VALID,339,VALID,0.399219,
2011-03-24, 00:48:05,VALID,1001.67,VALID,0,INVALID,112.671,VALID,0,VALID,25.3779,VALID,339,VALID,0.242578,
2011-03-24, 00:49:05,VALID,1001.65,VALID,0,INVALID,118.362,VALID,0,VALID,25.337,VALID,339,VALID,0.3,
2011-03-24, 00:50:05,VALID,1001.65,VALID,0,INVALID,122.299,VALID,0,VALID,25.3176,VALID,339,VALID,0.0078125,
2011-03-24, 00:51:05,VALID,1001.62,VALID,0,INVALID,126.548,VALID,0,VALID,25.337,VALID,339,VALID,0,
2011-03-24, 00:52:04,VALID,1001.63,VALID,0,INVALID,123.039,VALID,0,VALID,25.2981,VALID,339,VALID,0.236719,
2011-03-24, 00:53:04,VALID,1001.61,VALID,0,INVALID,128.775,VALID,0,VALID,25.3176,VALID,339,VALID,0.209766,
2011-03-24, 00:54:04,VALID,1001.6,VALID,0,INVALID,124.641,VALID,0,VALID,25.2981,VALID,339,VALID,0.282031,
2011-03-24, 00:55:04,VALID,1001.61,VALID,0,INVALID,125.335,VALID,0,VALID,25.2981,VALID,339,VALID,0.0488281,
2011-03-24, 00:56:04,VALID,1001.62,VALID,0,INVALID,124.328,VALID,0,VALID,25.3195,VALID,339,VALID,0,
2011-03-24, 00:57:04,VALID,1001.62,VALID,0,INVALID,129.638,VALID,0,VALID,25.339,VALID,339,VALID,0.195313,
2011-03-24, 00:58:04,VALID,1001.62,VALID,0,INVALID,143.743,VALID,0.100563,VALID,25.3176,VALID,339,VALID,0.172656,
2011-03-24, 00:59:04,VALID,1001.6,VALID,0,INVALID,153.539,VALID,0.100563,VALID,25.2962,VALID,339,VALID,0.0210938,
2011-03-24, 01:00:04,VALID,1001.61,VALID,0,INVALID,161.221,VALID,0.100563,VALID,25.2981,VALID,339,VALID,0.3,
2011-03-24, 01:01:04,VALID,1001.59,VALID,0,INVALID,163.594,VALID,0.100563,VALID,25.2767,VALID,339,VALID,0.214062,
2011-03-24, 01:02:04,VALID,1001.61,VALID,0,INVALID,163.624,VALID,0.100563,VALID,25.2786,VALID,339,VALID,0.364453,
2011-03-24, 01:03:04,VALID,1001.6,VALID,0,INVALID,163.601,VALID,0.100563,VALID,25.2183,VALID,339,VALID,0.335156,
2011-03-24, 01:04:04,VALID,1001.57,VALID,0,INVALID,163.617,VALID,0.100563,VALID,25.2202,VALID,339,VALID,0.406641,
2011-03-24, 01:05:04,VALID,1001.58,VALID,0,INVALID,163.624,VALID,0.100563,VALID,25.2202,VALID,339,VALID,0.247656,
2011-03-24, 01:06:04,VALID,1001.55,VALID,0,INVALID,163.601,VALID,0.100563,VALID,25.2007,VALID,339,VALID,0.159766,
2011-03-24, 01:07:04,VALID,1001.55,VALID,0,INVALID,163.617,VALID,0.100563,VALID,25.1813,VALID,339,VALID,0.222266,
2011-03-24, 01:08:04,VALID,1001.54,VALID,0,INVALID,163.639,VALID,0,VALID,25.1618,VALID,339,VALID,0.373437,
2011-03-24, 01:09:04,VALID,1001.5,VALID,0,INVALID,163.655,VALID,0.100563,VALID,25.1618,VALID,339,VALID,0.331641,
2011-03-24, 01:10:04,VALID,1001.47,VALID,0,INVALID,163.662,VALID,0,VALID,25.1015,VALID,339,VALID,0.361328,
2011-03-24, 01:11:04,VALID,1001.43,VALID,0,INVALID,163.647,VALID,0.100563,VALID,25.082,VALID,339,VALID,0.348437,
2011-03-24, 01:12:04,VALID,1001.44,VALID,0,INVALID,163.647,VALID,0.100563,VALID,25.0625,VALID,351,VALID,0.589844,
2011-03-24, 01:13:04,VALID,1001.44,VALID,0,INVALID,163.868,VALID,0,VALID,24.9476,VALID,356,VALID,0.514453,
2011-03-24, 01:14:04,VALID,1001.42,VALID,0,INVALID,163.639,VALID,0,VALID,25.006,VALID,356,VALID,0.604297,
2011-03-24, 01:15:04,VALID,1001.43,VALID,0,INVALID,163.655,VALID,0,VALID,24.9866,VALID,360,VALID,0.617969,
2011-03-24, 01:16:04,VALID,1001.44,VALID,0,INVALID,163.647,VALID,0,VALID,24.9476,VALID,360,VALID,0.5,
2011-03-24, 01:17:04,VALID,1001.43,VALID,0,INVALID,163.639,VALID,0,VALID,24.9282,VALID,12,VALID,0.592188,
2011-03-24, 01:18:04,VALID,1001.41,VALID,0,INVALID,163.624,VALID,0,VALID,24.8892,VALID,12,VALID,0.582812,
2011-03-24, 01:19:04,VALID,1001.4,VALID,0,INVALID,163.662,VALID,0,VALID,24.8911,VALID,12,VALID,0.561328,
2011-03-24, 01:20:04,VALID,1001.38,VALID,0,INVALID,163.67,VALID,0,VALID,24.8503,VALID,12,VALID,0.477734,
2011-03-24, 01:21:04,VALID,1001.36,VALID,0,INVALID,163.632,VALID,0,VALID,24.8503,VALID,12,VALID,0.360156,
2011-03-24, 01:22:04,VALID,1001.34,VALID,0,INVALID,163.647,VALID,0,VALID,24.8503,VALID,12,VALID,0.317578,
2011-03-24, 01:23:04,VALID,1001.33,VALID,0,INVALID,163.67,VALID,0,VALID,24.8522,VALID,12,VALID,0.313672,
2011-03-24, 01:24:04,VALID,1001.31,VALID,0,INVALID,163.67,VALID,0,VALID,24.8113,VALID,12,VALID,0.215234,
2011-03-24, 01:25:04,VALID,1001.31,VALID,0,INVALID,163.655,VALID,0,VALID,24.8113,VALID,12,VALID,0.179297,
2011-03-24, 01:26:04,VALID,1001.3,VALID,0,INVALID,163.662,VALID,0,VALID,24.7705,VALID,12,VALID,0.00859375,
2011-03-24, 01:27:04,VALID,1001.28,VALID,0,INVALID,163.678,VALID,0,VALID,24.8113,VALID,12,VALID,0.160156,
2011-03-24, 01:28:04,VALID,1001.29,VALID,0,INVALID,163.891,VALID,0,VALID,24.8308,VALID,12,VALID,0.0402344,
2011-03-24, 01:29:04,VALID,1001.29,VALID,0,INVALID,163.67,VALID,0,VALID,24.8095,VALID,12,VALID,0.201172,
2011-03-24, 01:30:04,VALID,1001.27,VALID,0,INVALID,163.624,VALID,0,VALID,24.8503,VALID,12,VALID,0.241797,
2011-03-24, 01:31:04,VALID,1001.26,VALID,0,INVALID,163.67,VALID,0,VALID,24.8716,VALID,12,VALID,0.304688,
2011-03-24, 01:32:04,VALID,1001.28,VALID,0,INVALID,163.678,VALID,0,VALID,24.8308,VALID,12,VALID,0.453906,
2011-03-24, 01:33:04,VALID,1001.23,VALID,0,INVALID,163.639,VALID,0,VALID,24.8113,VALID,12,VALID,0.474219,
2011-03-24, 01:34:04,VALID,1001.25,VALID,0,INVALID,163.639,VALID,0.100563,VALID,24.7705,VALID,12,VALID,0.414453,
2011-03-24, 01:35:04,VALID,1001.27,VALID,0,INVALID,163.639,VALID,0,VALID,24.7724,VALID,12,VALID,0.523047,
2011-03-24, 01:36:04,VALID,1001.22,VALID,0,INVALID,163.662,VALID,0,VALID,24.7724,VALID,12,VALID,0.364453,
2011-03-24, 01:37:04,VALID,1001.24,VALID,0,INVALID,163.662,VALID,0,VALID,24.7316,VALID,12,VALID,0.424609,
2011-03-24, 01:38:04,VALID,1001.21,VALID,0,INVALID,163.662,VALID,0,VALID,24.7743,VALID,12,VALID,0.305859,
2011-03-24, 01:39:04,VALID,1001.2,VALID,0,INVALID,163.662,VALID,0,VALID,24.7316,VALID,12,VALID,0.276563,
2011-03-24, 01:40:04,VALID,1001.21,VALID,0,INVALID,163.693,VALID,0,VALID,24.7335,VALID,12,VALID,0.321875,
2011-03-24, 01:41:04,VALID,1001.22,VALID,0,INVALID,163.662,VALID,0,VALID,24.7529,VALID,12,VALID,0.434766,
2011-03-24, 01:42:04,VALID,1001.25,VALID,0,INVALID,163.678,VALID,0,VALID,24.7335,VALID,11,VALID,0.489062,
2011-03-24, 01:43:04,VALID,1001.24,VALID,0,INVALID,163.891,VALID,0,VALID,24.714,VALID,11,VALID,0.694922,
2011-03-24, 01:44:04,VALID,1001.24,VALID,0,INVALID,163.632,VALID,0,VALID,24.6945,VALID,11,VALID,0.680859,
2011-03-24, 01:45:04,VALID,1001.29,VALID,0,INVALID,163.655,VALID,0,VALID,24.675,VALID,11,VALID,0.731641,
2011-03-24, 01:46:04,VALID,1001.27,VALID,0,INVALID,163.655,VALID,0,VALID,24.675,VALID,12,VALID,0.537891,
2011-03-24, 01:47:04,VALID,1001.24,VALID,0,INVALID,163.647,VALID,0,VALID,24.6556,VALID,17,VALID,0.505469,
2011-03-24, 01:48:04,VALID,1001.24,VALID,0,INVALID,163.67,VALID,0,VALID,24.6342,VALID,17,VALID,0.587891,
2011-03-24, 01:49:04,VALID,1001.22,VALID,0,INVALID,163.67,VALID,0,VALID,24.675,VALID,17,VALID,0.391797,
2011-03-24, 01:50:04,VALID,1001.21,VALID,0,INVALID,163.655,VALID,0.100563,VALID,24.6342,VALID,17,VALID,0.340625,
2011-03-24, 01:51:04,VALID,1001.15,VALID,0,INVALID,163.685,VALID,0,VALID,24.675,VALID,17,VALID,0.211719,
2011-03-24, 01:52:04,VALID,1001.15,VALID,0,INVALID,163.655,VALID,0,VALID,24.6556,VALID,17,VALID,0.430859,
2011-03-24, 01:53:04,VALID,1001.12,VALID,0,INVALID,163.678,VALID,0,VALID,24.6556,VALID,17,VALID,0.356641,
2011-03-24, 01:54:04,VALID,1001.1,VALID,0,INVALID,163.685,VALID,0,VALID,24.6342,VALID,17,VALID,0.240625,
2011-03-24, 01:55:04,VALID,1001.08,VALID,0,INVALID,163.67,VALID,0,VALID,24.675,VALID,17,VALID,0.159766,
2011-03-24, 01:56:04,VALID,1001.07,VALID,0,INVALID,163.662,VALID,0.100563,VALID,24.675,VALID,17,VALID,0.210547,
2011-03-24, 01:57:04,VALID,1001.06,VALID,0,INVALID,163.662,VALID,0,VALID,24.6732,VALID,17,VALID,0.168359,
2011-03-24, 01:58:04,VALID,1001.05,VALID,0,INVALID,163.891,VALID,0,VALID,24.7177,VALID,17,VALID,0.137109,
2011-03-24, 01:59:04,VALID,1001.08,VALID,0,INVALID,163.67,VALID,0,VALID,24.6769,VALID,17,VALID,0.00585938,
2011-03-24, 02:00:04,VALID,1001.05,VALID,0,INVALID,163.685,VALID,0,VALID,24.6964,VALID,17,VALID,0.00234375,
2011-03-24, 02:01:04,VALID,1001.08,VALID,0,INVALID,163.655,VALID,0,VALID,24.6945,VALID,17,VALID,0.220703,
2011-03-24, 02:02:04,VALID,1001.09,VALID,0,INVALID,163.655,VALID,0,VALID,24.6964,VALID,17,VALID,0.235938,
2011-03-24, 02:03:04,VALID,1001.1,VALID,0,INVALID,163.655,VALID,0,VALID,24.675,VALID,17,VALID,0.367578,
2011-03-24, 02:04:04,VALID,1001.1,VALID,0,INVALID,163.639,VALID,0,VALID,24.6964,VALID,17,VALID,0.345313,
2011-03-24, 02:05:04,VALID,1001.13,VALID,0,INVALID,163.67,VALID,0,VALID,24.675,VALID,17,VALID,0.424219,
2011-03-24, 02:06:04,VALID,1001.15,VALID,0,INVALID,163.67,VALID,0,VALID,24.6964,VALID,17,VALID,0.345703,
2011-03-24, 02:07:04,VALID,1001.14,VALID,0,INVALID,163.67,VALID,0,VALID,24.6769,VALID,17,VALID,0.396094,
2011-03-24, 02:08:04,VALID,1001.16,VALID,0,INVALID,163.662,VALID,0,VALID,24.6769,VALID,17,VALID,0.453516,
2011-03-24, 02:09:04,VALID,1001.15,VALID,0,INVALID,163.678,VALID,0,VALID,24.6769,VALID,17,VALID,0.403125,
2011-03-24, 02:10:04,VALID,1001.15,VALID,0,INVALID,163.67,VALID,0,VALID,24.6574,VALID,17,VALID,0.362891,
2011-03-24, 02:11:04,VALID,1001.18,VALID,0,INVALID,163.655,VALID,0,VALID,24.638,VALID,17,VALID,0.053125,
2011-03-24, 02:12:04,VALID,1001.13,VALID,0,INVALID,163.678,VALID,0,VALID,24.638,VALID,17,VALID,0,
2011-03-24, 02:13:04,VALID,1001.12,VALID,0,INVALID,163.922,VALID,0,VALID,24.6166,VALID,17,VALID,0,
2011-03-24, 02:14:04,VALID,1001.15,VALID,0,INVALID,163.685,VALID,0,VALID,24.6342,VALID,17,VALID,0,
2011-03-24, 02:15:04,VALID,1001.16,VALID,0,INVALID,163.662,VALID,0.100563,VALID,24.6361,VALID,17,VALID,0,
2011-03-24, 02:16:04,VALID,1001.15,VALID,0,INVALID,163.685,VALID,0,VALID,24.6556,VALID,17,VALID,0,
2011-03-24, 02:17:04,VALID,1001.13,VALID,0,INVALID,163.647,VALID,0,VALID,24.6556,VALID,17,VALID,0,
2011-03-24, 02:18:04,VALID,1001.17,VALID,0,INVALID,163.678,VALID,0,VALID,24.6556,VALID,17,VALID,0,
2011-03-24, 02:19:04,VALID,1001.15,VALID,0,INVALID,163.67,VALID,0,VALID,24.6556,VALID,17,VALID,0.177734,
2011-03-24, 02:20:04,VALID,1001.17,VALID,0,INVALID,163.678,VALID,0,VALID,24.6148,VALID,17,VALID,0.0359375,
2011-03-24, 02:21:04,VALID,1001.17,VALID,0,INVALID,163.693,VALID,0.100563,VALID,24.6361,VALID,17,VALID,0,
2011-03-24, 02:22:04,VALID,1001.19,VALID,0,INVALID,163.693,VALID,0.100563,VALID,24.6361,VALID,17,VALID,0,
2011-03-24, 02:23:04,VALID,1001.21,VALID,0,INVALID,163.647,VALID,0.100563,VALID,24.5953,VALID,17,VALID,0.183984,
2011-03-24, 02:24:04,VALID,1001.23,VALID,0,INVALID,163.67,VALID,0,VALID,24.5953,VALID,17,VALID,0.126953,
2011-03-24, 02:25:04,VALID,1001.22,VALID,0,INVALID,163.685,VALID,0,VALID,24.5972,VALID,17,VALID,0,
2011-03-24, 02:26:04,VALID,1001.23,VALID,0,INVALID,163.678,VALID,0,VALID,24.5777,VALID,17,VALID,0.0125,
2011-03-24, 02:27:04,VALID,1001.24,VALID,0,INVALID,163.708,VALID,0.100563,VALID,24.5777,VALID,17,VALID,0.0492188,
2011-03-24, 02:28:04,VALID,1001.2,VALID,0,INVALID,163.868,VALID,0,VALID,24.5796,VALID,17,VALID,0,
2011-03-24, 02:29:04,VALID,1001.2,VALID,0,INVALID,163.701,VALID,0,VALID,24.5796,VALID,17,VALID,0,
2011-03-24, 02:30:04,VALID,1001.19,VALID,0,INVALID,163.678,VALID,0,VALID,24.5601,VALID,17,VALID,0,
2011-03-24, 02:31:04,VALID,1001.2,VALID,0,INVALID,163.693,VALID,0,VALID,24.5601,VALID,17,VALID,0.0148437,
2011-03-24, 02:32:04,VALID,1001.15,VALID,0,INVALID,163.693,VALID,0,VALID,24.5388,VALID,17,VALID,0.0441406,
2011-03-24, 02:33:04,VALID,1001.18,VALID,0,INVALID,163.678,VALID,0,VALID,24.5406,VALID,17,VALID,0.110547,
2011-03-24, 02:34:04,VALID,1001.18,VALID,0,INVALID,163.678,VALID,0,VALID,24.5406,VALID,17,VALID,0.410937,
2011-03-24, 02:35:04,VALID,1001.15,VALID,0,INVALID,163.701,VALID,0,VALID,24.4998,VALID,17,VALID,0.432422,
2011-03-24, 02:36:04,VALID,1001.16,VALID,0,INVALID,163.67,VALID,0,VALID,24.4804,VALID,17,VALID,0.464844,
2011-03-24, 02:37:04,VALID,1001.16,VALID,0,INVALID,163.701,VALID,0,VALID,24.4804,VALID,17,VALID,0.372266,
2011-03-24, 02:38:04,VALID,1001.15,VALID,0,INVALID,163.701,VALID,0,VALID,24.4804,VALID,17,VALID,0.065625,
2011-03-24, 02:39:04,VALID,1001.17,VALID,0,INVALID,163.67,VALID,0,VALID,24.5017,VALID,17,VALID,0.234375,
2011-03-24, 02:40:04,VALID,1001.14,VALID,0,INVALID,163.701,VALID,0,VALID,24.5212,VALID,17,VALID,0.176563,
2011-03-24, 02:41:04,VALID,1001.17,VALID,0,INVALID,163.685,VALID,0,VALID,24.5212,VALID,17,VALID,0.275391,
2011-03-24, 02:42:04,VALID,1001.15,VALID,0,INVALID,163.67,VALID,0,VALID,24.4998,VALID,17,VALID,0.171484,
2011-03-24, 02:43:04,VALID,1001.14,VALID,0,INVALID,163.891,VALID,0,VALID,24.4998,VALID,17,VALID,0,
2011-03-24, 02:44:04,VALID,1001.15,VALID,0,INVALID,163.685,VALID,0,VALID,24.5406,VALID,17,VALID,0,
2011-03-24, 02:45:04,VALID,1001.12,VALID,0,INVALID,163.678,VALID,0,VALID,24.5388,VALID,17,VALID,0,
2011-03-24, 02:46:04,VALID,1001.13,VALID,0,INVALID,163.685,VALID,0,VALID,24.5601,VALID,17,VALID,0.000390625,
2011-03-24, 02:47:04,VALID,1001.12,VALID,0,INVALID,163.678,VALID,0,VALID,24.5601,VALID,17,VALID,0.226953,
2011-03-24, 02:48:04,VALID,1001.13,VALID,0,INVALID,163.662,VALID,0,VALID,24.5388,VALID,17,VALID,0.214062,
2011-03-24, 02:49:04,VALID,1001.12,VALID,0,INVALID,163.685,VALID,0,VALID,24.5601,VALID,17,VALID,0.0226563,
2011-03-24, 02:50:04,VALID,1001.11,VALID,0,INVALID,163.693,VALID,0,VALID,24.5601,VALID,17,VALID,0.01875,
2011-03-24, 02:51:04,VALID,1001.11,VALID,0,INVALID,163.67,VALID,0,VALID,24.5601,VALID,17,VALID,0,
2011-03-24, 02:52:04,VALID,1001.11,VALID,0,INVALID,163.655,VALID,0,VALID,24.5796,VALID,17,VALID,0,
2011-03-24, 02:53:04,VALID,1001.09,VALID,0,INVALID,163.678,VALID,0,VALID,24.5582,VALID,17,VALID,0,
2011-03-24, 02:54:04,VALID,1001.12,VALID,0,INVALID,163.701,VALID,0,VALID,24.599,VALID,17,VALID,0,
2011-03-24, 02:55:04,VALID,1001.13,VALID,0,INVALID,163.662,VALID,0,VALID,24.599,VALID,17,VALID,0,
2011-03-24, 02:56:04,VALID,1001.11,VALID,0,INVALID,163.67,VALID,0,VALID,24.5582,VALID,17,VALID,0,
2011-03-24, 02:57:04,VALID,1001.11,VALID,0,INVALID,163.685,VALID,0,VALID,24.599,VALID,17,VALID,0,
2011-03-24, 02:58:04,VALID,1001.1,VALID,0,INVALID,163.868,VALID,0,VALID,24.6185,VALID,17,VALID,0,
2011-03-24, 02:59:04,VALID,1001.14,VALID,0,INVALID,163.685,VALID,0,VALID,24.5972,VALID,17,VALID,0,
2011-03-24, 03:00:04,VALID,1001.1,VALID,0,INVALID,163.662,VALID,0,VALID,24.5972,VALID,17,VALID,0,
2011-03-24, 03:01:04,VALID,1001.11,VALID,0,INVALID,163.67,VALID,0,VALID,24.5972,VALID,17,VALID,0,
2011-03-24, 03:02:04,VALID,1001.09,VALID,0,INVALID,163.685,VALID,0,VALID,24.6185,VALID,17,VALID,0.0117188,
2011-03-24, 03:03:04,VALID,1001.08,VALID,0,INVALID,163.662,VALID,0,VALID,24.6185,VALID,17,VALID,0.492969,
2011-03-24, 03:04:04,VALID,1001.05,VALID,0,INVALID,163.678,VALID,0,VALID,24.6185,VALID,17,VALID,0.690625,
2011-03-24, 03:05:04,VALID,1001.06,VALID,0,INVALID,163.662,VALID,0,VALID,24.5777,VALID,17,VALID,0.658594,
2011-03-24, 03:06:04,VALID,1001.06,VALID,0,INVALID,163.685,VALID,0,VALID,24.6185,VALID,17,VALID,0.660156,
2011-03-24, 03:07:04,VALID,1001.05,VALID,0,INVALID,163.67,VALID,0,VALID,24.5796,VALID,17,VALID,0.465625,
2011-03-24, 03:08:04,VALID,1001.07,VALID,0,INVALID,163.678,VALID,0,VALID,24.5796,VALID,16,VALID,0.364844,
2011-03-24, 03:09:04,VALID,1001.06,VALID,0,INVALID,163.67,VALID,0,VALID,24.5796,VALID,16,VALID,0.3875,
2011-03-24, 03:10:04,VALID,1001.05,VALID,0,INVALID,163.708,VALID,0,VALID,24.5601,VALID,16,VALID,0.286328,
2011-03-24, 03:11:04,VALID,1001.05,VALID,0,INVALID,163.67,VALID,0,VALID,24.5193,VALID,16,VALID,0.213281,
2011-03-24, 03:12:04,VALID,1001.08,VALID,0,INVALID,163.685,VALID,0,VALID,24.5406,VALID,16,VALID,0,
2011-03-24, 03:13:04,VALID,1001.05,VALID,0,INVALID,163.922,VALID,0,VALID,24.5017,VALID,16,VALID,0.00351562,
2011-03-24, 03:14:04,VALID,1001.08,VALID,0,INVALID,163.685,VALID,0,VALID,24.5193,VALID,16,VALID,0.298828,
2011-03-24, 03:15:04,VALID,1001.09,VALID,0,INVALID,163.716,VALID,0,VALID,24.4998,VALID,16,VALID,0.164063,
2011-03-24, 03:16:04,VALID,1001.12,VALID,0,INVALID,163.685,VALID,0,VALID,24.5193,VALID,16,VALID,0.277344,
2011-03-24, 03:17:04,VALID,1001.12,VALID,0,INVALID,163.678,VALID,0,VALID,24.5212,VALID,16,VALID,0.183594,
2011-03-24, 03:18:04,VALID,1001.13,VALID,0,INVALID,163.678,VALID,0,VALID,24.4998,VALID,16,VALID,0.0375,
2011-03-24, 03:19:04,VALID,1001.16,VALID,0,INVALID,163.67,VALID,0,VALID,24.4804,VALID,16,VALID,0,
2011-03-24, 03:20:04,VALID,1001.15,VALID,0,INVALID,163.693,VALID,0,VALID,24.5017,VALID,16,VALID,0,
2011-03-24, 03:21:04,VALID,1001.17,VALID,0,INVALID,163.655,VALID,0,VALID,24.5017,VALID,16,VALID,0.0726563,
2011-03-24, 03:22:04,VALID,1001.18,VALID,0,INVALID,163.678,VALID,0,VALID,24.523,VALID,16,VALID,0.100391,
2011-03-24, 03:23:04,VALID,1001.18,VALID,0,INVALID,163.693,VALID,0,VALID,24.5017,VALID,16,VALID,0.346875,
2011-03-24, 03:24:04,VALID,1001.16,VALID,0,INVALID,163.678,VALID,0,VALID,24.5017,VALID,16,VALID,0,
2011-03-24, 03:25:04,VALID,1001.16,VALID,0,INVALID,163.693,VALID,0,VALID,24.4804,VALID,16,VALID,0.136328,
2011-03-24, 03:26:04,VALID,1001.13,VALID,0,INVALID,163.693,VALID,0,VALID,24.4609,VALID,16,VALID,0.0175781,
2011-03-24, 03:27:04,VALID,1001.13,VALID,0,INVALID,163.701,VALID,0,VALID,24.4822,VALID,16,VALID,0.271484,
2011-03-24, 03:28:04,VALID,1001.14,VALID,0,INVALID,163.891,VALID,0,VALID,24.4822,VALID,16,VALID,0,
2011-03-24, 03:29:04,VALID,1001.16,VALID,0,INVALID,163.708,VALID,0,VALID,24.4822,VALID,136,VALID,0.69375,
2011-03-24, 03:30:04,VALID,1001.17,VALID,0,INVALID,163.678,VALID,0,VALID,24.5406,VALID,136,VALID,0.371094,
2011-03-24, 03:31:04,VALID,1001.16,VALID,0,INVALID,163.701,VALID,0,VALID,24.5601,VALID,136,VALID,0.396094,
2011-03-24, 03:32:04,VALID,1001.19,VALID,0,INVALID,163.701,VALID,0,VALID,24.5193,VALID,136,VALID,0.399219,
2011-03-24, 03:33:04,VALID,1001.18,VALID,0,INVALID,163.685,VALID,0,VALID,24.5193,VALID,136,VALID,0.167187,
2011-03-24, 03:34:04,VALID,1001.23,VALID,0,INVALID,163.685,VALID,0,VALID,24.5406,VALID,136,VALID,0.248437,
2011-03-24, 03:35:04,VALID,1001.2,VALID,0,INVALID,163.662,VALID,0,VALID,24.5582,VALID,136,VALID,0.388281,
2011-03-24, 03:36:04,VALID,1001.21,VALID,0,INVALID,163.662,VALID,0,VALID,24.638,VALID,136,VALID,0,
2011-03-24, 03:37:04,VALID,1001.24,VALID,0,INVALID,163.685,VALID,0,VALID,24.675,VALID,136,VALID,0,
2011-03-24, 03:38:04,VALID,1001.31,VALID,0,INVALID,163.685,VALID,0,VALID,24.714,VALID,136,VALID,0.112891,
2011-03-24, 03:39:04,VALID,1001.3,VALID,0,INVALID,163.678,VALID,0,VALID,24.7529,VALID,136,VALID,0.310547,
2011-03-24, 03:40:04,VALID,1001.32,VALID,0,INVALID,163.639,VALID,0,VALID,24.7529,VALID,136,VALID,0.178125,
2011-03-24, 03:41:04,VALID,1001.36,VALID,0,INVALID,163.662,VALID,0,VALID,24.7335,VALID,136,VALID,0.201953,
2011-03-24, 03:42:04,VALID,1001.37,VALID,0,INVALID,163.662,VALID,0,VALID,24.7353,VALID,136,VALID,0.215625,